sat.trackr.live / text

‹ back to catalog

STARLINK-34310

NORAD 64210 · 2025-117H

PAYLOAD ACTIVE UNKNOWN

§ Identity

Operator
Country
US
Launch date
2025-05-31
Launch site
AFWTR
Launch vehicle
Mass (kg)
RCS (m²)

Purposes: comms

External: N2YO · Heavens-Above · Gunter

§ Orbital elements

Epoch: 2026-05-25T03:17:47.853024Z

Period
94.10 min
Inclination
53.1586°
Eccentricity
0.0001134
Mean motion
15.30210066 rev/d
Perigee alt
474.4 km
Apogee alt
476.0 km
Semi-major
6,853.3 km
B*
5.1607e-4
RAAN
44.2680°
Arg perigee
86.5526°
Mean anomaly
273.5605°
Rev number
5,623

§ Raw data

STARLINK-343101 64210U 25117H   26145.13735941  .00014961  00000+0  51607-3 0  99922 64210  53.1586  44.2680 0001134  86.5526 273.5605 15.30210066 56236

JSON: /api/v1/satellites/64210 · /tle

For live sub-satellite position, see the globe view (requires WebGL).

§ Visibility from observer

Set your observer location to see the next 7 days of passes ≥ 10°. The values pass through the URL so the page stays shareable.

No JS? Fill the form by hand. The geolocation button needs JavaScript.